Погода в Калите

Украина / Киевская область     50°45′01″N   31°01′34″E
темп.,
°C
ветер,
м/с
пор.,
м/с
влажн.,
%
обл.,
%
осадки,
мм/ч
давл.,
гПа
погр.,
м
13 мая, чт
чт1300:00+9в2286100 0.0 101239
03:00+8ююв2290100 0.0 101154
06:00+8ююв2592100 0.4 1011187
09:00+10ююв4582100 0.5 1010480
12:00+14ююв5665100 0.3 10101378
15:00+15ююв5963100 0.3 10101523
18:00+12ююз5976100 0.1 1010487
21:00+10вюв388778 0.4 1010209
14 мая, пт
пт1400:00+11юв4118496 0.0 1010248
03:00+11юв51283100 0.0 1009361
06:00+10юв4992100 0.0 1009199
09:00+15юв586910 0.1 1008492
12:00+19юв576099 0.0 10081056
15:00+20ююв576181 0.2 10061632
18:00+18ююз477560 1.1 1006792
21:00+14ю23855 1.5 100630
15 мая, сб
сб1500:00+11ююз35963 0.0 1007105
03:00+11ююз379589 0.0 1007151
06:00+12юз4998100 1.8 1008359
09:00+13юз5995100 4.9 1009523
12:00+13юз3790100 1.0 1011396
15:00+19ююз466191 1.5 10101488
18:00+16зюз577522 0.7 1011753
21:00+12зюз379130 0.8 1012132
16 мая, вс
вс1600:00+10з33935 0.0 101344
03:00+10ююз22925 0.0 101415
06:00+10ю22921 0.0 101417
09:00+16ююв22751 0.0 1014371
12:00+19ююв22615 0.0 10141005
15:00+22юв2253100 0.0 10131312
18:00+21вюв2363100 0.0 10121302
21:00+16в3378100 0.0 101131
17 мая, пн
пн1700:00+14в4784100 0.0 1011101
03:00+13всв4108696 0.0 1010166
06:00+14в41185100 0.0 1009223
09:00+16юв5987100 0.8 1010411
12:00+18ссз5682100 1.3 1008510
15:00+20ссв467996 1.7 1005674
18:00+17зсз579398 3.0 1004311
21:00+14зсз5129397 4.3 1005371